This is the latest recevied weather packets stored in our database for station/object KD4WXI. If no packets are shown the sender has not sent any weather packets the latest 1 day(s).
| Time | Temp. | Humidity | Pressure | Rain* | Wind** | Luminosity | Snow |
|---|---|---|---|---|---|---|---|
| 1778021977 | 23.89° C | 43% | 1013.7 hPa | 0 mm | 0.45 m/s, 297° | 44 W/m² | - |
| 1778021674 | 23.89° C | 43% | 1013.5 hPa | 0 mm | 0 m/s | 55 W/m² | - |
| 1778021370 | 23.89° C | 43% | 1013.6 hPa | 0 mm | 0.45 m/s, 284° | 45 W/m² | - |
| 1778021067 | 24.44° C | 41% | 1013.8 hPa | 0 mm | 0.45 m/s, 239° | 52 W/m² | - |
| 1778020764 | 23.89° C | 41% | 1013.5 hPa | 0 mm | 0.45 m/s, 243° | 62 W/m² | - |
| 1778020461 | 23.89° C | 42% | 1013.4 hPa | 0 mm | 0 m/s | 75 W/m² | - |
| 1778020157 | 23.89° C | 42% | 1013.6 hPa | 0 mm | 1.34 m/s, 241° | 68 W/m² | - |
| 1778019854 | 23.89° C | 41% | 1013.6 hPa | 0 mm | 1.34 m/s, 237° | 64 W/m² | - |
| 1778019550 | 23.89° C | 43% | 1013.8 hPa | 0 mm | 0.89 m/s, 206° | 51 W/m² | - |
| 1778019247 | 23.89° C | 40% | 1013.9 hPa | 0 mm | 0 m/s | 49 W/m² | - |
| 1778018944 | 23.89° C | 41% | 1013.7 hPa | 0 mm | 0.89 m/s, 234° | 39 W/m² | - |
| 1778018641 | 24.44° C | 39% | 1014 hPa | 0 mm | 0.89 m/s, 269° | 23 W/m² | - |
| 1778018339 | 24.44° C | 41% | 1013.9 hPa | 0 mm | 0.89 m/s, 183° | 37 W/m² | - |
| 1778018037 | 24.44° C | 40% | 1013.8 hPa | 0 mm | 2.24 m/s, 241° | 42 W/m² | - |
| 1778017735 | 24.44° C | 39% | 1014 hPa | 0 mm | 0.45 m/s, 347° | 42 W/m² | - |
| 1778017432 | 25° C | 41% | 1014.1 hPa | 0 mm | 1.34 m/s, 238° | 39 W/m² | - |
| 1778017129 | 25° C | 39% | 1013.9 hPa | 0 mm | 1.34 m/s, 225° | 46 W/m² | - |
| 1778016827 | 25° C | 41% | 1014 hPa | 0 mm | 0.89 m/s, 247° | 77 W/m² | - |
| 1778016522 | 25° C | 41% | 1014.1 hPa | 0 mm | 0.89 m/s, 267° | 113 W/m² | - |
| 1778016220 | 24.44° C | 40% | 1014.2 hPa | 0 mm | 0.89 m/s, 288° | 119 W/m² | - |
| 1778015916 | 24.44° C | 41% | 1014.1 hPa | 0 mm | 1.34 m/s, 256° | 107 W/m² | - |
| 1778015614 | 24.44° C | 41% | 1014.1 hPa | 0 mm | 0.89 m/s, 258° | 82 W/m² | - |
| 1778015310 | 24.44° C | 41% | 1014.3 hPa | 0 mm | 0.89 m/s, 249° | 61 W/m² | - |
| 1778015007 | 25° C | 40% | 1014.2 hPa | 0 mm | 2.24 m/s, 243° | 65 W/m² | - |
| 1778014703 | 25° C | 39% | 1014.2 hPa | 0 mm | 1.79 m/s, 178° | 69 W/m² | - |
* Rain latest hour (hover to see other rain measurements)
** Current wind speed in m/s (hover to see current wind gust speed)